Home   Weather   Port Angeles   Past weeks

Flag for USA Past Weather in Port Angeles, Washington, USA — Yesterday and Last 2 Weeks

Now
38 °F

Mostly cloudy.


Feels Like: 32 °F
Forecast: 39 / 44 °F
Wind: 8 mph from West

Location: William R. Fairchild International Airport

Current Time: Dec 10, 2016 at 8:32:00 pm

Latest Report: Dec 10, 2016 at 7:53 pm


Visibility: 10 mi

Pressure: 29.79 "Hg

Humidity: 93%

Dew Point: 36 °F

Location of Port AngelesLocation

Past Weather in Port Angeles — Graph

°F

Port Angeles Temperature Yesterday

Maximum temperature yesterday: 36 °F (at 1:53 pm)
Minimum temperature yesterday: 28 °F (at 7:53 am)
Average temperature yesterday: 32 °F

High & Low Weather Summary for the Past Weeks

 TemperatureHumidityPressure
High53 °F (Nov 28, 11:53 am)100% (Nov 25, 6:53 pm)30.47 "Hg (Nov 25, 6:53 pm)
Low25 °F (Dec 7, 8:53 am)51% (Dec 4, 12:53 pm)29.44 "Hg (Nov 27, 4:53 pm)
Average39 °F84%30.00 "Hg
* Reported Nov 25 6:53 pm — Dec 10 6:53 pm, Port Angeles, Weather by CustomWeather, © 2016

Note: Actual official high and low records may vary slightly from our data, if they occured in-between our weather recording intervals... More about our weather records

Advertising

Port Angeles Weather History for the Previous 24 Hours

Scroll right to see more
 ConditionsComfort  
Time TempWeatherWind HumidityBarometerVisibility
6:53 pm
Sat, Dec 10
35 °FMostly cloudy.No wind100%29.78 "Hg10 mi
5:53 pm37 °FLight rain. Overcast.8 mph96%29.78 "Hg10 mi
4:53 pm35 °FPassing clouds.5 mph100%29.78 "Hg10 mi
3:53 pm38 °FLight rain. Fog.3 mph100%29.77 "Hg5 mi
2:53 pm39 °FLight rain. Mostly cloudy.No wind96%29.76 "Hg10 mi
1:53 pm40 °FCloudy.No wind93%29.75 "Hg10 mi
12:53 pm40 °FLight rain. Broken clouds.3 mph97%29.75 "Hg10 mi
11:53 am39 °FLight rain. Mostly cloudy.3 mph89%29.76 "Hg8 mi
10:53 am38 °FLight rain. Mostly cloudy.3 mph90%29.77 "Hg10 mi
9:53 am36 °FMostly cloudy.3 mph97%29.78 "Hg10 mi
8:53 am34 °FMostly cloudy.No wind100%29.78 "Hg10 mi
7:53 am35 °FOvercast.3 mph96%29.80 "Hg10 mi
6:53 am30 °FLight snow. Passing clouds.No wind100%29.80 "Hg8 mi
5:53 am30 °FLight snow. Passing clouds.No wind100%29.80 "Hg10 mi
4:53 am32 °FPassing clouds.7 mph100%29.80 "Hg8 mi
3:53 am31 °FLight snow. Passing clouds.5 mph100%29.80 "Hg9 mi
2:53 am36 °FMostly cloudy.8 mph97%29.80 "Hg10 mi
1:53 am35 °FPassing clouds.8 mph96%29.79 "Hg10 mi
12:53 am34 °FMostly cloudy.5 mph100%29.80 "Hg9 mi
11:53 pm
Fri, Dec 9
35 °FLight rain. Mostly cloudy.3 mph100%29.80 "Hg10 mi
10:53 pm34 °FLight rain. Passing clouds.7 mph97%29.77 "Hg10 mi
9:53 pm34 °FPassing clouds.5 mph100%29.77 "Hg8 mi
8:53 pm35 °FMostly cloudy.5 mph96%29.78 "Hg10 mi
Weather by CustomWeather, © 2016

See weather overviewHow to use our weather pages